| time (UTC) | temp F | wind direction | speed knots | gust knots | rain 1hr in | rain 24hr in | rain mn in | humidity % | barometer mb |
| 20260906234532 | 97 | 200 | 0.0 | 1.7 | 0.00 | 0.00 | 0.00 | 18 | 1036.8 |
| 20260906233033 | 98 | 209 | 0.0 | 3.5 | 0.00 | 0.00 | 0.00 | 17 | 1036.8 |
| 20260906231527 | 99 | 172 | 0.0 | 1.7 | 0.00 | 0.00 | 0.00 | 17 | 1036.8 |
| 20260906230011 | 98 | 167 | 0.0 | 0.9 | 0.00 | 0.00 | 0.00 | 17 | 1036.9 |
| 20260906224503 | 98 | 214 | 0.0 | 2.6 | 0.00 | 0.00 | 0.00 | 16 | 1036.8 |
| 20260906223004 | 99 | 212 | 0.9 | 4.3 | 0.00 | 0.00 | 0.00 | 16 | 1036.8 |
| 20260906221505 | 99 | 238 | 0.0 | 1.7 | 0.00 | 0.00 | 0.00 | 15 | 1037.1 |
| 20260906220010 | 99 | 249 | 0.0 | 1.7 | 0.00 | 0.00 | 0.00 | 15 | 1037.4 |
| 20260906214524 | 101 | 242 | 0.0 | 7.0 | 0.00 | 0.00 | 0.00 | 14 | 1037.6 |
| 20260906213003 | 102 | 269 | 0.0 | 3.5 | 0.00 | 0.00 | 0.00 | 14 | 1038.0 |
| 20260906211506 | 101 | 7 | 0.0 | 0.0 | 0.00 | 0.00 | 0.00 | 14 | 1038.2 |
| 20260906210007 | 100 | 3 | 0.0 | 0.0 | 0.00 | 0.00 | 0.00 | 14 | 1038.4 |
| 20260906204512 | 98 | 11 | 0.0 | 3.5 | 0.00 | 0.00 | 0.00 | 14 | 1038.5 |
| 20260906203020 | 99 | 138 | 0.0 | 1.7 | 0.00 | 0.00 | 0.00 | 14 | 1039.0 |
| 20260906201504 | 99 | 148 | 0.0 | 1.7 | 0.00 | 0.00 | 0.00 | 14 | 1039.1 |
| 20260906200004 | 99 | 53 | 0.0 | 1.7 | 0.00 | 0.00 | 0.00 | 14 | 1039.3 |
| 20260906194516 | 98 | 143 | 0.0 | 0.0 | 0.00 | 0.00 | 0.00 | 15 | 1039.4 |
| 20260906193016 | 99 | 122 | 0.0 | 0.0 | 0.00 | 0.00 | 0.00 | 14 | 1039.5 |
| 20260906191525 | 98 | 138 | 0.0 | 2.6 | 0.00 | 0.00 | 0.00 | 15 | 1039.7 |
| 20260906190005 | 97 | 188 | 0.0 | 0.0 | 0.00 | 0.00 | 0.00 | 16 | 1040.0 |
| 20260906184517 | 97 | 87 | 0.0 | 0.0 | 0.00 | 0.00 | 0.00 | 16 | 1040.3 |
| 20260906183018 | 95 | 139 | 0.0 | 0.0 | 0.00 | 0.00 | 0.00 | 16 | 1040.6 |
| 20260906181522 | 95 | 137 | 0.0 | 1.7 | 0.00 | 0.00 | 0.00 | 16 | 1040.7 |
| 20260906180024 | 94 | 130 | 0.0 | 0.0 | 0.00 | 0.00 | 0.00 | 20 | 1041.2 |
| 20260906174504 | 92 | 79 | 0.0 | 0.0 | 0.00 | 0.00 | 0.00 | 22 | 1041.2 |
| 20260906173012 | 91 | 53 | 0.0 | 1.7 | 0.00 | 0.00 | 0.00 | 23 | 1041.2 |
| 20260906171517 | 89 | 4 | 0.0 | 3.5 | 0.00 | 0.00 | 0.00 | 24 | 1041.6 |
| 20260906170029 | 88 | 51 | 0.0 | 1.7 | 0.00 | 0.00 | 0.00 | 25 | 1041.6 |
| 20260906164530 | 87 | 70 | 0.0 | 0.0 | 0.00 | 0.00 | 0.00 | 26 | 1041.9 |
| 20260906163010 | 85 | 70 | 0.0 | 0.0 | 0.00 | 0.00 | 0.00 | 27 | 1041.9 |
| 20260906161516 | 83 | 66 | 0.0 | 1.7 | 0.00 | 0.00 | 0.00 | 29 | 1041.9 |
| 20260906160021 | 81 | 53 | 0.0 | 0.0 | 0.00 | 0.00 | 0.00 | 30 | 1041.8 |
| 20260906154528 | 81 | 53 | 0.0 | 0.0 | 0.00 | 0.00 | 0.00 | 30 | 1042.1 |
| 20260906153008 | 79 | 53 | 0.0 | 0.0 | 0.00 | 0.00 | 0.00 | 31 | 1041.9 |
| 20260906151514 | 78 | 53 | 0.0 | 0.9 | 0.00 | 0.00 | 0.00 | 31 | 1041.8 |
| 20260906150031 | 77 | 350 | 0.0 | 0.0 | 0.00 | 0.00 | 0.00 | 31 | 1041.9 |
| 20260906144524 | 76 | 350 | 0.0 | 0.0 | 0.00 | 0.00 | 0.00 | 31 | 1041.8 |
| 20260906143029 | 75 | 350 | 0.0 | 0.0 | 0.00 | 0.00 | 0.00 | 32 | 1041.7 |
| 20260906141511 | 74 | 350 | 0.0 | 0.0 | 0.00 | 0.00 | 0.00 | 34 | 1041.5 |
| 20260906140035 | 74 | 350 | 0.0 | 0.0 | 0.00 | 0.00 | 0.00 | 31 | 1041.4 |
| 20260906134520 | 74 | 349 | 0.0 | 0.0 | 0.00 | 0.00 | 0.00 | 29 | 1041.2 |
| 20260906133030 | 73 | 355 | 0.0 | 4.3 | 0.00 | 0.00 | 0.00 | 29 | 1040.8 |
| 20260906131536 | 71 | 354 | 0.0 | 1.7 | 0.00 | 0.00 | 0.00 | 30 | 1040.8 |
| 20260906130013 | 71 | 355 | 0.0 | 0.0 | 0.00 | 0.00 | 0.00 | 31 | 1040.8 |
| 20260906124520 | 70 | 353 | 0.0 | 0.0 | 0.00 | 0.00 | 0.00 | 31 | 1041.0 |
| 20260906123026 | 69 | 347 | 0.0 | 0.0 | 0.00 | 0.00 | 0.00 | 33 | 1040.7 |
| 20260906121528 | 69 | 347 | 0.0 | 0.0 | 0.00 | 0.00 | 0.00 | 36 | 1040.8 |
| 20260906120029 | 70 | 347 | 0.0 | 0.0 | 0.00 | 0.00 | 0.00 | 35 | 1040.6 |
| 20260906114523 | 71 | 347 | 0.0 | 0.0 | 0.00 | 0.00 | 0.00 | 35 | 1040.6 |
| 20260906113034 | 72 | 347 | 0.0 | 0.0 | 0.00 | 0.00 | 0.00 | 34 | 1040.7 |
| 20260906111528 | 72 | 347 | 0.0 | 0.0 | 0.00 | 0.00 | 0.00 | 34 | 1040.6 |
| 20260906110030 | 73 | 347 | 0.0 | 0.0 | 0.00 | 0.00 | 0.00 | 32 | 1040.5 |
| 20260906104514 | 74 | 347 | 0.0 | 0.0 | 0.00 | 0.00 | 0.00 | 32 | 1040.6 |
| 20260906103018 | 74 | 347 | 0.0 | 0.0 | 0.00 | 0.00 | 0.00 | 32 | 1040.6 |
| 20260906101505 | 74 | 346 | 0.0 | 0.0 | 0.00 | 0.00 | 0.00 | 32 | 1040.3 |
| 20260906100006 | 74 | 309 | 0.0 | 1.7 | 0.00 | 0.00 | 0.00 | 32 | 1040.4 |
| 20260906094512 | 74 | 296 | 0.0 | 1.7 | 0.00 | 0.00 | 0.00 | 32 | 1040.2 |
| 20260906093040 | 75 | 2 | 0.0 | 1.7 | 0.00 | 0.00 | 0.00 | 32 | 1040.2 |
| 20260906091503 | 75 | 2 | 0.0 | 2.6 | 0.00 | 0.00 | 0.00 | 31 | 1040.1 |
| 20260906090012 | 76 | 1 | 0.0 | 0.0 | 0.00 | 0.00 | 0.00 | 30 | 1040.0 |
| 20260906084511 | 77 | 337 | 0.0 | 0.0 | 0.00 | 0.00 | 0.00 | 30 | 1039.9 |
| 20260906083030 | 76 | 337 | 0.0 | 0.0 | 0.00 | 0.00 | 0.00 | 30 | 1040.2 |
| 20260906081520 | 76 | 334 | 0.0 | 1.7 | 0.00 | 0.00 | 0.00 | 30 | 1040.3 |
| 20260906080004 | 75 | 320 | 0.0 | 1.7 | 0.00 | 0.00 | 0.00 | 32 | 1040.3 |
| 20260906074528 | 74 | 238 | 0.0 | 0.0 | 0.00 | 0.00 | 0.00 | 32 | 1040.4 |
| 20260906073014 | 74 | 238 | 0.0 | 0.0 | 0.00 | 0.00 | 0.00 | 33 | 1040.9 |
| 20260906071516 | 75 | 235 | 0.0 | 0.0 | 0.00 | 0.00 | 0.00 | 1040.7 | |
| 20260906070027 | 76 | 235 | 0.0 | 0.0 | 0.00 | 0.00 | 0.00 | 31 | 1040.6 |
| 20260906064505 | 77 | 235 | 0.0 | 0.0 | 0.00 | 0.00 | 0.00 | 30 | 1040.6 |
| 20260906063010 | 77 | 235 | 0.0 | 0.0 | 0.00 | 0.00 | 0.00 | 30 | 1040.6 |
| 20260906061520 | 78 | 235 | 0.0 | 0.0 | 0.00 | 0.00 | 0.00 | 30 | 1040.5 |
| 20260906060026 | 77 | 236 | 0.0 | 0.0 | 0.00 | 0.00 | 0.00 | 30 | 1040.6 |
| 20260906054528 | 78 | 236 | 0.0 | 0.0 | 0.00 | 0.00 | 0.00 | 29 | 1040.3 |
| 20260906053007 | 80 | 236 | 0.0 | 1.7 | 0.00 | 0.00 | 0.00 | 28 | 1040.1 |
| 20260906051514 | 80 | 3 | 0.0 | 5.2 | 0.00 | 0.00 | 0.00 | 27 | 1040.0 |
| 20260906050022 | 80 | 9 | 0.9 | 7.8 | 0.00 | 0.00 | 0.00 | 27 | 1039.8 |
| 20260906044526 | 80 | 1 | 0.9 | 6.1 | 0.00 | 0.00 | 0.00 | 28 | 1039.7 |
| 20260906043031 | 80 | 10 | 0.0 | 1.7 | 0.00 | 0.00 | 0.00 | 28 | 1039.9 |
| 20260906041515 | 81 | 8 | 0.0 | 1.7 | 0.00 | 0.00 | 0.00 | 27 | 1039.8 |
| 20260906040021 | 82 | 8 | 0.0 | 1.7 | 0.00 | 0.00 | 0.00 | 27 | 1039.9 |
| 20260906034525 | 82 | 8 | 0.0 | 1.7 | 0.00 | 0.00 | 0.00 | 27 | 1039.8 |
| 20260906033030 | 82 | 5 | 0.0 | 3.5 | 0.00 | 0.00 | 0.00 | 27 | 1039.9 |
| 20260906031509 | 82 | 356 | 0.0 | 3.5 | 0.00 | 0.00 | 0.00 | 27 | 1039.5 |
| 20260906030020 | 83 | 13 | 0.0 | 4.3 | 0.00 | 0.00 | 0.00 | 27 | 1039.4 |
| 20260906024522 | 83 | 4 | 0.0 | 3.5 | 0.00 | 0.00 | 0.00 | 26 | 1039.1 |
| 20260906023028 | 84 | 18 | 0.0 | 3.5 | 0.00 | 0.00 | 0.00 | 27 | 1039.1 |
| 20260906021530 | 83 | 340 | 0.0 | 0.0 | 0.00 | 0.00 | 0.00 | 29 | 1038.9 |
| 20260906020025 | 85 | 340 | 0.0 | 0.0 | 0.00 | 0.00 | 0.00 | 28 | 1038.9 |
| 20260906014535 | 86 | 340 | 0.0 | 0.0 | 0.00 | 0.00 | 0.00 | 28 | 1038.8 |
| 20260906013028 | 87 | 340 | 0.0 | 0.0 | 0.00 | 0.00 | 0.00 | 27 | 1038.7 |
| 20260906011533 | 88 | 340 | 0.0 | 0.0 | 0.00 | 0.00 | 0.00 | 26 | 1038.7 |
| 20260906010055 | 89 | 340 | 0.0 | 0.0 | 0.00 | 0.00 | 0.00 | 25 | 1038.6 |
| 20260906004515 | 90 | 339 | 0.0 | 0.0 | 0.00 | 0.00 | 0.00 | 24 | 1038.7 |
| 20260906003020 | 91 | 316 | 0.0 | 2.6 | 0.00 | 0.00 | 0.00 | 24 | 1038.6 |
| 20260906001541 | 92 | 288 | 0.0 | 0.0 | 0.00 | 0.00 | 0.00 | 23 | 1038.7 |
| 20260906000030 | 93 | 288 | 0.0 | 4.3 | 0.00 | 0.00 | 0.00 | 23 | 1038.5 |